• In Hungary
  • List of Countries
  • For 7 days
  • Water Temperature
  • Satellite Maps
  • Weather Map
  • News
  • Weather Widgets
  • user-avatar
    Login

    Hourly Weather Zavire

    Today, 21 August, Tuesday

    Time Temperature Precipitation Wind Pressure Humidity
    00:00 +17°C° 0 mm 4 mps 736 mmHg 91%
    01:00 +17°C° 0 mm 4 mps 736 mmHg 91%
    02:00 +18°C° 0 mm 4 mps 734 mmHg 91%
    03:00 +18°C° 1.1 mm 4 mps 734 mmHg 93%
    04:00 +18°C° 1.1 mm 4 mps 734 mmHg 94%
    05:00 +18°C° 1.1 mm 4 mps 733 mmHg 95%
    06:00 +17°C° 0.4 mm 5 mps 733 mmHg 95%
    07:00 +16°C° 0.4 mm 5 mps 734 mmHg 94%
    08:00 +16°C° 0 mm 5 mps 734 mmHg 93%
    09:00 +16°C° 0.2 mm 5 mps 734 mmHg 86%
    10:00 +17°C° 0.2 mm 6 mps 734 mmHg 80%
    11:00 +17°C° 0.2 mm 6 mps 735 mmHg 74%
    12:00 +19°C° 0.1 mm 6 mps 735 mmHg 67%
    13:00 +19°C° 0.1 mm 6 mps 735 mmHg 60%
    14:00 +20°C° 0 mm 5 mps 736 mmHg 53%
    15:00 +19°C° 0.1 mm 5 mps 736 mmHg 55%
    16:00 +17°C° 0.1 mm 5 mps 737 mmHg 58%
    17:00 +17°C° 0.1 mm 5 mps 737 mmHg 61%
    18:00 +15°C° 0 mm 4 mps 737 mmHg 67%
    19:00 +13°C° 0 mm 3 mps 738 mmHg 73%
    20:00 +12°C° 0 mm 3 mps 738 mmHg 80%
    21:00 +11°C° 0 mm 3 mps 738 mmHg 81%
    22:00 +11°C° 0 mm 3 mps 739 mmHg 81%
    23:00 +10°C° 0 mm 3 mps 739 mmHg 82%

    Tomorrow, 22 August, Wednesday

    Time Temperature Precipitation Wind Pressure Humidity
    00:00 +10°C° 0 mm 3 mps 739 mmHg 83%
    01:00 +10°C° 0 mm 3 mps 740 mmHg 84%
    02:00 +10°C° 0 mm 3 mps 740 mmHg 85%
    03:00 +9°C° 0 mm 3 mps 741 mmHg 86%
    04:00 +8°C° 0 mm 4 mps 741 mmHg 87%
    05:00 +8°C° 0 mm 4 mps 741 mmHg 88%
    06:00 +10°C° 0 mm 4 mps 742 mmHg 81%
    07:00 +11°C° 0 mm 4 mps 742 mmHg 74%
    08:00 +13°C° 0 mm 5 mps 743 mmHg 67%
    09:00 +14°C° 0 mm 5 mps 743 mmHg 62%
    10:00 +15°C° 0 mm 5 mps 743 mmHg 57%
    11:00 +16°C° 0 mm 5 mps 744 mmHg 52%
    12:00 +16°C° 0 mm 5 mps 744 mmHg 50%
    13:00 +16°C° 0 mm 5 mps 744 mmHg 48%
    14:00 +17°C° 0 mm 5 mps 744 mmHg 46%
    15:00 +17°C° 0 mm 4 mps 745 mmHg 48%
    16:00 +17°C° 0 mm 4 mps 745 mmHg 51%
    17:00 +17°C° 0 mm 4 mps 745 mmHg 53%
    18:00 +14°C° 0 mm 3 mps 745 mmHg 61%
    19:00 +13°C° 0 mm 2 mps 746 mmHg 69%
    20:00 +10°C° 0 mm 2 mps 746 mmHg 77%
    21:00 +10°C° 0 mm 2 mps 746 mmHg 79%
    22:00 +9°C° 0 mm 2 mps 747 mmHg 81%
    23:00 +8°C° 0 mm 2 mps 747 mmHg 83%

    Day after tomorrow, 23 August, Thursday

    Time Temperature Precipitation Wind Pressure Humidity
    00:00 +8°C° 0 mm 2 mps 747 mmHg 84%
    01:00 +8°C° 0 mm 2 mps 747 mmHg 85%
    02:00 +8°C° 0 mm 2 mps 747 mmHg 86%
    03:00 +8°C° 0 mm 2 mps 747 mmHg 87%
    04:00 +7°C° 0 mm 2 mps 747 mmHg 87%
    05:00 +7°C° 0 mm 2 mps 748 mmHg 88%
    06:00 +9°C° 0 mm 2 mps 748 mmHg 80%
    07:00 +13°C° 0 mm 2 mps 748 mmHg 73%
    08:00 +14°C° 0 mm 3 mps 748 mmHg 66%
    09:00 +16°C° 0 mm 3 mps 747 mmHg 61%
    10:00 +18°C° 0 mm 3 mps 747 mmHg 55%
    11:00 +19°C° 0 mm 4 mps 747 mmHg 50%
    12:00 +20°C° 0 mm 4 mps 747 mmHg 49%
    13:00 +21°C° 0 mm 4 mps 747 mmHg 48%
    14:00 +21°C° 0 mm 4 mps 746 mmHg 47%
    15:00 +21°C° 0 mm 3 mps 746 mmHg 50%
    16:00 +20°C° 0 mm 3 mps 746 mmHg 54%
    17:00 +20°C° 0 mm 2 mps 746 mmHg 58%
    18:00 +18°C° 0 mm 2 mps 746 mmHg 66%
    19:00 +16°C° 0 mm 2 mps 746 mmHg 73%
    20:00 +14°C° 0 mm 2 mps 746 mmHg 81%
    21:00 +13°C° 0 mm 2 mps 746 mmHg 83%
    22:00 +13°C° 0 mm 2 mps 746 mmHg 85%
    23:00 +12°C° 0 mm 2 mps 746 mmHg 87%

    24 August, Friday

    Time Temperature Precipitation Wind Pressure Humidity
    00:00 +12°C° 0 mm 2 mps 746 mmHg 89%
    01:00 +10°C° 0 mm 2 mps 746 mmHg 91%
    02:00 +10°C° 0 mm 2 mps 746 mmHg 93%
    03:00 +10°C° 0 mm 2 mps 746 mmHg 94%
    04:00 +9°C° 0 mm 2 mps 746 mmHg 94%
    05:00 +9°C° 0 mm 2 mps 746 mmHg 95%
    06:00 +12°C° 0 mm 2 mps 745 mmHg 86%
    07:00 +14°C° 0 mm 2 mps 745 mmHg 78%
    08:00 +16°C° 0 mm 2 mps 745 mmHg 69%
    09:00 +18°C° 0 mm 3 mps 745 mmHg 63%
    10:00 +20°C° 0 mm 3 mps 745 mmHg 56%
    11:00 +21°C° 0 mm 3 mps 745 mmHg 50%
    12:00 +22°C° 0 mm 3 mps 745 mmHg 49%
    13:00 +24°C° 0 mm 3 mps 744 mmHg 47%
    14:00 +24°C° 0 mm 3 mps 744 mmHg 45%
    15:00 +24°C° 0 mm 3 mps 744 mmHg 50%
    16:00 +23°C° 0 mm 2 mps 744 mmHg 54%
    17:00 +23°C° 0 mm 2 mps 743 mmHg 59%
    18:00 +20°C° 0 mm 2 mps 743 mmHg 66%
    19:00 +17°C° 0 mm 2 mps 743 mmHg 73%
    20:00 +15°C° 0 mm 2 mps 743 mmHg 80%
    21:00 +14°C° 0 mm 2 mps 743 mmHg 82%
    22:00 +14°C° 0 mm 2 mps 743 mmHg 84%
    23:00 +13°C° 0 mm 2 mps 743 mmHg 86%

    25 August, Saturday

    Time Temperature Precipitation Wind Pressure Humidity
    00:00 +13°C° 0 mm 2 mps 743 mmHg 87%
    01:00 +13°C° 0 mm 2 mps 743 mmHg 88%
    02:00 +12°C° 0 mm 2 mps 743 mmHg 89%
    03:00 +11°C° 0 mm 3 mps 743 mmHg 89%
    04:00 +11°C° 0 mm 3 mps 742 mmHg 89%
    05:00 +11°C° 0 mm 3 mps 742 mmHg 88%
    06:00 +13°C° 0 mm 3 mps 742 mmHg 80%
    07:00 +16°C° 0 mm 3 mps 742 mmHg 73%
    08:00 +18°C° 0 mm 4 mps 742 mmHg 65%
    09:00 +20°C° 0 mm 4 mps 742 mmHg 58%
    10:00 +21°C° 0 mm 4 mps 742 mmHg 52%
    11:00 +23°C° 0 mm 5 mps 742 mmHg 45%
    12:00 +25°C° 0 mm 5 mps 742 mmHg 44%
    13:00 +25°C° 0 mm 5 mps 742 mmHg 43%
    14:00 +26°C° 0 mm 5 mps 742 mmHg 41%
    15:00 +25°C° 0 mm 4 mps 742 mmHg 46%
    16:00 +25°C° 0 mm 3 mps 741 mmHg 50%
    17:00 +24°C° 0 mm 3 mps 741 mmHg 55%
    18:00 +21°C° 0 mm 3 mps 741 mmHg 61%
    19:00 +19°C° 0 mm 3 mps 741 mmHg 66%
    20:00 +17°C° 0 mm 3 mps 741 mmHg 72%
    21:00 +17°C° 0 mm 3 mps 741 mmHg 73%
    22:00 +16°C° 0 mm 3 mps 742 mmHg 75%
    23:00 +16°C° 0 mm 3 mps 742 mmHg 76%

    26 August, Sunday

    Time Temperature Precipitation Wind Pressure Humidity
    00:00 +16°C° 0 mm 3 mps 742 mmHg 77%
    01:00 +14°C° 0 mm 3 mps 742 mmHg 78%
    02:00 +14°C° 0 mm 3 mps 742 mmHg 79%
    03:00 +13°C° 0 mm 3 mps 742 mmHg 79%
    04:00 +13°C° 0 mm 3 mps 742 mmHg 79%
    05:00 +13°C° 0 mm 3 mps 742 mmHg 80%
    06:00 +16°C° 0 mm 3 mps 742 mmHg 74%
    07:00 +17°C° 0 mm 3 mps 742 mmHg 69%
    08:00 +19°C° 0 mm 4 mps 742 mmHg 63%
    09:00 +21°C° 0 mm 4 mps 742 mmHg 57%
    10:00 +23°C° 0 mm 4 mps 742 mmHg 51%
    11:00 +25°C° 0 mm 4 mps 742 mmHg 44%
    12:00 +26°C° 0 mm 4 mps 742 mmHg 43%
    13:00 +27°C° 0 mm 4 mps 742 mmHg 41%
    14:00 +27°C° 0 mm 4 mps 742 mmHg 39%
    15:00 +26°C° 0 mm 4 mps 741 mmHg 44%
    16:00 +26°C° 0 mm 3 mps 741 mmHg 49%
    17:00 +25°C° 0 mm 2 mps 741 mmHg 53%
    18:00 +22°C° 0 mm 3 mps 741 mmHg 59%
    19:00 +20°C° 0 mm 3 mps 741 mmHg 64%
    20:00 +18°C° 0 mm 3 mps 741 mmHg 69%
    21:00 +18°C° 0 mm 3 mps 741 mmHg 71%
    22:00 +17°C° 0 mm 3 mps 741 mmHg 72%
    23:00 +16°C° 0 mm 3 mps 741 mmHg 73%
    Show more